Weather Roundup
Issued by NWS Chicago, IL

Home | Current Version | Previous Version | Text Only | Print | Product List | Glossary Off
Versions: 1 2 3 4 5 6 7 8 9 10 11 12 13 14 15 16 17 18 19 20 21 22 23 24 25 26 27 28 29 30 31 32 33 34 35 36 37 38 39 40 41 42 43 44 45 46 47 48 49 50

000
NZUS59 KLOT 011908
HRRLOT

CHICAGO AREA WEATHER ROUNDUP
NATIONAL WEATHER SERVICE CHICAGO/ROMEOVILLE IL
200 PM CDT TUE SEP 01 2015

NOTE: "FAIR" INDICATES FEW OR NO CLOUDS BELOW 12,000 FEET WITH NO
SIGNIFICANT WEATHER AND/OR OBSTRUCTIONS TO VISIBILITY.

* THESE STATIONS ARE NOT UNDER NWS QUALITY CONTROL. THEY ALSO MAY NOT
  REPORT WEATHER SUCH AS PRECIPITATION OR FOG.

ILZ005-006-012>014-019>023-012000-
NORTHEAST ILLINOIS

CITY           SKY/WX    TMP DP  RH WIND       PRES   REMARKS
OHARE          MOSUNNY   87  71  58 SW10G20   30.01F HX  93
MIDWAY         MOSUNNY   86  71  60 SW12      30.02F HX  91
AURORA         MOSUNNY   88  72  58 SW10      30.03F HX  94
LANSING*       SUNNY     83  69  64 SW13      30.05S HX  86
JOLIET*        MOSUNNY   86  74  67 S9        30.03F HX  95
WAUKEGAN       PTSUNNY   84  73  69 SE9       30.00F HX  90
DUPAGE AIRPORT MOSUNNY   87  73  62 SW10      30.02F HX  94
WHEELING       MOSUNNY   90  68  48 SW10      30.02F HX  94
KANKAKEE*      SUNNY     85  71  62 SW14      30.06F HX  90
MORRIS*        MOSUNNY   85  75  72 S10       30.02S HX  94
LEWIS AIRPORT* SUNNY     84  71  65 S9G16     30.04S HX  88
NORTHERLY IS     N/A     84  69  60 S13         N/A  HX  88
$$

WIZ051-052-058>065-066-070>072-012000-
SOUTHEAST WISCONSIN

CITY           SKY/WX    TMP DP  RH WIND       PRES   REMARKS
MILWAUKEE      PTSUNNY   89  68  49 SW13G23   29.99F HX  93
KENOSHA*       PTSUNNY   88  72  58 S12       30.01F HX  94
RACINE*        MOSUNNY   83  71  67 S14       30.02F HX  87
BURLINGTON     MOSUNNY   86  70  58 S7        30.01S HX  90
WAUKESHA       MOSUNNY   84  66  54 SW14      30.01F HX  86
WEST BEND      MOSUNNY   86  64  48 SW10G17   30.00S HX  87
$$

INZ001>003-010>013-019-020-012000-
NORTHWEST INDIANA

CITY           SKY/WX    TMP DP  RH WIND       PRES   REMARKS
GARY*          MOSUNNY   84  64  51 SW9G26    30.05F HX  86
MICHIGAN CITY* NOT AVBL
RENSSELAER*    NOT AVBL
VALPARAISO     SUNNY     82  71  69 SW9       30.07F HX  86
$$

LMZ740>746-012000-
SOUTHERN LAKE MICHIGAN

STATION/POSITION TIME  SKY/WX   TEMP WIND        PRES    VSBY
                                AIR  DIR/SP/G
                 (UTC)          (F)  (DEG/KT/KT) (MB)    (MI)
HARRISON CRIB    1800            79  170/ 17/ 20   N/A
BURNHAM HARBOR   1900            84  180/  9/ 16   N/A
CALUMET HARBOR   1800            81  180/ 11/ 19   N/A
BURNS HARBOR     1800            79  200/ 12/ 17 1018.3F
MICHIGAN CITY    1800            79  190/ 14/ 17   N/A
$$

ABBREVIATIONS USED IN REMARKS
   TC - TEMPERATURE IN CELSIUS
  WCI - WIND CHILL INDEX
   HX - HEAT INDEX
  VSB - VISIBILITY
$$



USA.gov is the U.S. government's official web portal to all federal, state and local government web resources and services.